Time,TemperatureF,DewpointF,PressureIn,WindDirection,WindDirectionDegrees,WindSpeedMPH,WindSpeedGustMPH,Humidity,HourlyPrecipIn,Conditions,Clouds,dailyrainin,SoftwareType,DateUTC
2013-06-29 00:00:00,72.0,70.0,-100.00,South,180,11.0,13.0,94,-99.99,,,-99.99,,2013-06-29 04:00:00,
2013-06-29 00:10:00,72.0,71.0,-100.00,SSW,210,11.0,13.0,94,-99.99,,,-99.99,,2013-06-29 04:10:00,
2013-06-29 00:21:00,72.0,71.0,-100.00,SSW,210,11.0,13.0,94,-99.99,,,-99.99,,2013-06-29 04:21:00,
2013-06-29 00:30:00,72.0,70.0,-100.00,South,170,11.0,16.0,95,-99.99,,,-99.99,,2013-06-29 04:30:00,
2013-06-29 01:00:00,72.0,70.0,-100.00,South,170,11.0,13.0,94,-99.99,,,-99.99,,2013-06-29 05:00:00,
2013-06-29 01:41:00,72.0,70.0,-100.00,South,170,11.0,13.0,94,-99.99,,,-99.99,,2013-06-29 05:41:00,
2013-06-29 01:51:00,72.0,70.0,-100.00,South,170,11.0,13.0,94,-99.99,,,-99.99,,2013-06-29 05:51:00,
2013-06-29 02:30:00,71.0,70.0,-100.00,SSE,160,9.0,11.0,95,-99.99,,,-99.99,,2013-06-29 06:30:00,
2013-06-29 02:33:00,71.0,70.0,-100.00,South,180,9.0,11.0,95,-99.99,,,-99.99,,2013-06-29 06:33:00,
2013-06-29 02:43:00,71.0,70.0,-100.00,SSE,150,9.0,11.0,94,-99.99,,,-99.99,,2013-06-29 06:43:00,
2013-06-29 02:53:00,71.0,70.0,-100.00,SSE,150,9.0,11.0,94,-99.99,,,-99.99,,2013-06-29 06:53:00,
2013-06-29 03:00:00,71.0,70.0,-100.00,South,170,9.0,11.0,95,-99.99,,,-99.99,,2013-06-29 07:00:00,
2013-06-29 03:02:00,71.0,70.0,-100.00,SSE,150,9.0,11.0,94,-99.99,,,-99.99,,2013-06-29 07:02:00,
2013-06-29 03:12:00,71.0,70.0,-100.00,SSE,160,9.0,11.0,95,-99.99,,,-99.99,,2013-06-29 07:12:00,
2013-06-29 03:21:00,71.0,70.0,-100.00,SSE,160,9.0,11.0,95,-99.99,,,-99.99,,2013-06-29 07:21:00,
2013-06-29 03:43:00,71.0,70.0,-100.00,South,170,9.0,11.0,95,-99.99,,,-99.99,,2013-06-29 07:43:00,
2013-06-29 03:53:00,71.0,70.0,-100.00,South,170,9.0,11.0,95,-99.99,,,-99.99,,2013-06-29 07:53:00,
2013-06-29 04:11:00,71.0,70.0,-100.00,South,180,9.0,11.0,95,-99.99,,,-99.99,,2013-06-29 08:11:00,
2013-06-29 04:21:00,71.0,70.0,-100.00,South,180,9.0,11.0,95,-99.99,,,-99.99,,2013-06-29 08:21:00,
2013-06-29 04:33:00,71.0,70.0,-100.00,South,180,9.0,11.0,95,-99.99,,,-99.99,,2013-06-29 08:33:00,
2013-06-29 04:43:00,71.0,70.0,-100.00,South,180,7.0,9.0,95,-99.99,,,-99.99,,2013-06-29 08:43:00,
2013-06-29 04:52:00,71.0,70.0,-100.00,South,180,7.0,9.0,95,-99.99,,,-99.99,,2013-06-29 08:52:00,
2013-06-29 05:02:00,71.0,70.0,-100.00,South,180,7.0,9.0,95,-99.99,,,-99.99,,2013-06-29 09:02:00,
2013-06-29 05:12:00,71.0,70.0,-100.00,South,180,7.0,9.0,95,-99.99,,,-99.99,,2013-06-29 09:12:00,
2013-06-29 05:33:00,71.0,70.0,-100.00,SSW,200,9.0,11.0,95,-99.99,,,-99.99,,2013-06-29 09:33:00,
2013-06-29 05:42:00,71.0,70.0,-100.00,South,190,11.0,13.0,95,-99.99,,,-99.99,,2013-06-29 09:42:00,
2013-06-29 05:53:00,71.0,70.0,-100.00,South,190,11.0,13.0,95,-99.99,,,-99.99,,2013-06-29 09:53:00,
2013-06-29 06:00:00,71.0,69.0,-100.00,South,190,9.0,11.0,95,-99.99,,,-99.99,,2013-06-29 10:00:00,
2013-06-29 06:01:00,71.0,70.0,-100.00,South,190,11.0,13.0,95,-99.99,,,-99.99,,2013-06-29 10:01:00,
2013-06-29 06:11:00,71.0,70.0,-100.00,South,190,11.0,13.0,95,-99.99,,,-99.99,,2013-06-29 10:11:00,
2013-06-29 06:33:00,71.0,69.0,-100.00,South,190,9.0,11.0,95,-99.99,,,-99.99,,2013-06-29 10:33:00,
2013-06-29 06:42:00,71.0,69.0,-100.00,South,190,9.0,11.0,95,-99.99,,,-99.99,,2013-06-29 10:42:00,
2013-06-29 06:52:00,71.0,69.0,-100.00,South,190,9.0,11.0,95,-99.99,,,-99.99,,2013-06-29 10:52:00,
2013-06-29 07:00:00,71.0,69.0,-100.00,SSW,210,9.0,11.0,94,-99.99,,,-99.99,,2013-06-29 11:00:00,
2013-06-29 07:11:00,71.0,69.0,-100.00,South,180,9.0,11.0,95,-99.99,,,-99.99,,2013-06-29 11:11:00,
2013-06-29 07:23:00,71.0,69.0,-100.00,South,180,9.0,11.0,95,-99.99,,,-99.99,,2013-06-29 11:23:00,
2013-06-29 07:33:00,71.0,69.0,-100.00,South,190,9.0,11.0,94,-99.99,,,-99.99,,2013-06-29 11:33:00,
2013-06-29 07:43:00,71.0,69.0,-100.00,SSW,210,9.0,11.0,94,-99.99,,,-99.99,,2013-06-29 11:43:00,
2013-06-29 07:53:00,71.0,69.0,-100.00,SSW,210,9.0,11.0,94,-99.99,,,-99.99,,2013-06-29 11:53:00,
2013-06-29 08:00:00,71.0,68.0,-100.00,SW,230,7.0,9.0,91,-99.99,,,-99.99,,2013-06-29 12:00:00,
2013-06-29 08:30:00,71.0,68.0,-100.00,SW,220,7.0,9.0,90,-99.99,,,-99.99,,2013-06-29 12:30:00,
2013-06-29 08:34:00,71.0,68.0,-100.00,WSW,240,9.0,11.0,92,-99.99,,,-99.99,,2013-06-29 12:34:00,
2013-06-29 08:43:00,71.0,68.0,-100.00,SW,230,7.0,9.0,91,-99.99,,,-99.99,,2013-06-29 12:43:00,
2013-06-29 08:52:00,71.0,68.0,-100.00,SW,230,7.0,9.0,91,-99.99,,,-99.99,,2013-06-29 12:52:00,
2013-06-29 09:00:00,71.0,68.0,-100.00,SSW,210,4.0,7.0,90,-99.99,,,-99.99,,2013-06-29 13:00:00,
2013-06-29 09:23:00,71.0,68.0,-100.00,SW,220,7.0,9.0,90,-99.99,,,-99.99,,2013-06-29 13:23:00,
2013-06-29 09:30:00,71.0,68.0,-100.00,South,170,4.0,4.0,91,-99.99,,,-99.99,,2013-06-29 13:30:00,
2013-06-29 09:43:00,71.0,68.0,-100.00,SSW,210,4.0,7.0,90,-99.99,,,-99.99,,2013-06-29 13:43:00,
2013-06-29 09:53:00,71.0,68.0,-100.00,SSW,210,4.0,7.0,90,-99.99,,,-99.99,,2013-06-29 13:53:00,
2013-06-29 10:00:00,71.0,68.0,-100.00,West,280,4.0,9.0,91,-99.99,,,-99.99,,2013-06-29 14:00:00,
2013-06-29 10:23:00,71.0,68.0,-100.00,South,170,4.0,4.0,91,-99.99,,,-99.99,,2013-06-29 14:23:00,
2013-06-29 10:44:00,71.0,68.0,-100.00,West,280,4.0,9.0,91,-99.99,,,-99.99,,2013-06-29 14:44:00,
2013-06-29 10:53:00,71.0,68.0,-100.00,West,280,4.0,9.0,91,-99.99,,,-99.99,,2013-06-29 14:53:00,
2013-06-29 11:11:00,72.0,69.0,-100.00,SW,230,9.0,11.0,90,-99.99,,,-99.99,,2013-06-29 15:11:00,
2013-06-29 11:21:00,72.0,69.0,-100.00,SW,230,9.0,11.0,90,-99.99,,,-99.99,,2013-06-29 15:21:00,
2013-06-29 11:33:00,71.0,69.0,-100.00,SW,220,9.0,11.0,90,-99.99,,,-99.99,,2013-06-29 15:33:00,
2013-06-29 11:42:00,71.0,69.0,-100.00,SW,220,7.0,7.0,90,-99.99,,,-99.99,,2013-06-29 15:42:00,
2013-06-29 11:53:00,71.0,69.0,-100.00,SW,220,7.0,7.0,90,-99.99,,,-99.99,,2013-06-29 15:53:00,
2013-06-29 12:01:00,71.0,69.0,-100.00,SW,220,7.0,7.0,90,-99.99,,,-99.99,,2013-06-29 16:01:00,
2013-06-29 12:12:00,71.0,69.0,-100.00,SW,220,7.0,7.0,90,-99.99,,,-99.99,,2013-06-29 16:12:00,
2013-06-29 12:33:00,72.0,69.0,-100.00,WSW,240,4.0,7.0,90,-99.99,,,-99.99,,2013-06-29 16:33:00,
2013-06-29 12:43:00,72.0,69.0,-100.00,SW,230,4.0,7.0,89,-99.99,,,-99.99,,2013-06-29 16:43:00,
2013-06-29 12:53:00,72.0,69.0,-100.00,SW,230,4.0,7.0,89,-99.99,,,-99.99,,2013-06-29 16:53:00,
2013-06-29 13:00:00,73.0,69.0,-100.00,SSW,210,4.0,4.0,86,-99.99,,,-99.99,,2013-06-29 17:00:00,
2013-06-29 13:01:00,72.0,69.0,-100.00,SW,230,4.0,7.0,89,-99.99,,,-99.99,,2013-06-29 17:01:00,
2013-06-29 13:11:00,72.0,69.0,-100.00,SSW,210,4.0,4.0,88,-99.99,,,-99.99,,2013-06-29 17:11:00,
2013-06-29 13:22:00,72.0,69.0,-100.00,SSW,210,4.0,4.0,88,-99.99,,,-99.99,,2013-06-29 17:22:00,
2013-06-29 13:33:00,73.0,69.0,-100.00,SSW,200,4.0,4.0,87,-99.99,,,-99.99,,2013-06-29 17:33:00,
2013-06-29 13:42:00,73.0,69.0,-100.00,SSW,210,4.0,4.0,86,-99.99,,,-99.99,,2013-06-29 17:42:00,
2013-06-29 13:52:00,73.0,69.0,-100.00,SSW,210,4.0,4.0,86,-99.99,,,-99.99,,2013-06-29 17:52:00,
2013-06-29 14:00:00,74.0,69.0,-100.00,South,170,13.0,18.0,84,-99.99,,,-99.99,,2013-06-29 18:00:00,
2013-06-29 14:33:00,74.0,69.0,-100.00,South,180,13.0,16.0,81,-99.99,,,-99.99,,2013-06-29 18:33:00,
2013-06-29 14:43:00,74.0,69.0,-100.00,South,170,13.0,18.0,84,-99.99,,,-99.99,,2013-06-29 18:43:00,
2013-06-29 14:52:00,74.0,69.0,-100.00,South,170,13.0,18.0,84,-99.99,,,-99.99,,2013-06-29 18:52:00,
2013-06-29 15:00:00,74.0,69.0,-100.00,SSW,200,13.0,18.0,83,-99.99,,,-99.99,,2013-06-29 19:00:00,
2013-06-29 15:12:00,74.0,69.0,-100.00,South,190,13.0,18.0,85,-99.99,,,-99.99,,2013-06-29 19:12:00,
2013-06-29 15:22:00,74.0,69.0,-100.00,South,190,13.0,18.0,85,-99.99,,,-99.99,,2013-06-29 19:22:00,
2013-06-29 15:34:00,74.0,69.0,-100.00,SSW,200,16.0,18.0,84,-99.99,,,-99.99,,2013-06-29 19:34:00,
2013-06-29 15:43:00,74.0,69.0,-100.00,SSW,200,13.0,18.0,83,-99.99,,,-99.99,,2013-06-29 19:43:00,
2013-06-29 15:53:00,74.0,69.0,-100.00,SSW,200,13.0,18.0,83,-99.99,,,-99.99,,2013-06-29 19:53:00,
2013-06-29 16:11:00,75.0,68.0,-100.00,SSW,210,16.0,18.0,79,-99.99,,,-99.99,,2013-06-29 20:11:00,
2013-06-29 16:22:00,75.0,68.0,-100.00,SSW,210,16.0,18.0,79,-99.99,,,-99.99,,2013-06-29 20:22:00,
2013-06-29 16:33:00,75.0,68.0,-100.00,SSW,210,16.0,18.0,79,-99.99,,,-99.99,,2013-06-29 20:33:00,
2013-06-29 16:43:00,75.0,68.0,-100.00,SSW,210,16.0,18.0,79,-99.99,,,-99.99,,2013-06-29 20:43:00,
2013-06-29 18:00:00,74.0,70.0,-100.00,SSW,200,16.0,20.0,84,-99.99,,,-99.99,,2013-06-29 22:00:00,
2013-06-29 18:43:00,74.0,70.0,-100.00,South,190,16.0,20.0,84,-99.99,,,-99.99,,2013-06-29 22:43:00,
2013-06-29 18:53:00,74.0,70.0,-100.00,SSW,200,16.0,20.0,84,-99.99,,,-99.99,,2013-06-29 22:53:00,
2013-06-29 19:00:00,74.0,70.0,-100.00,SSW,200,18.0,22.0,87,-99.99,,,-99.99,,2013-06-29 23:00:00,
2013-06-29 19:12:00,74.0,70.0,-100.00,SSW,200,16.0,20.0,86,-99.99,,,-99.99,,2013-06-29 23:12:00,
2013-06-29 19:23:00,74.0,70.0,-100.00,SSW,200,16.0,20.0,86,-99.99,,,-99.99,,2013-06-29 23:23:00,
2013-06-29 19:30:00,73.0,70.0,-100.00,SSW,210,18.0,22.0,89,-99.99,,,-99.99,,2013-06-29 23:30:00,
2013-06-29 19:33:00,74.0,70.0,-100.00,SSW,200,18.0,22.0,87,-99.99,,,-99.99,,2013-06-29 23:33:00,
2013-06-29 19:42:00,74.0,70.0,-100.00,SSW,200,18.0,22.0,87,-99.99,,,-99.99,,2013-06-29 23:42:00,
2013-06-29 19:52:00,74.0,70.0,-100.00,SSW,200,18.0,22.0,87,-99.99,,,-99.99,,2013-06-29 23:52:00,
2013-06-29 20:11:00,73.0,70.0,-100.00,SSW,210,18.0,22.0,89,-99.99,,,-99.99,,2013-06-30 00:11:00,
2013-06-29 20:22:00,73.0,70.0,-100.00,SSW,210,18.0,22.0,89,-99.99,,,-99.99,,2013-06-30 00:22:00,
2013-06-29 20:30:00,72.0,70.0,-100.00,SSW,210,16.0,18.0,91,-99.99,,,-99.99,,2013-06-30 00:30:00,
2013-06-29 20:42:00,72.0,70.0,-100.00,SW,220,13.0,18.0,90,-99.99,,,-99.99,,2013-06-30 00:42:00,
2013-06-29 20:52:00,72.0,70.0,-100.00,SW,220,13.0,18.0,90,-99.99,,,-99.99,,2013-06-30 00:52:00,
2013-06-29 21:00:00,72.0,70.0,-100.00,SSW,210,13.0,16.0,92,-99.99,,,-99.99,,2013-06-30 01:00:00,
2013-06-29 21:01:00,72.0,70.0,-100.00,SW,220,13.0,18.0,90,-99.99,,,-99.99,,2013-06-30 01:01:00,
2013-06-29 21:11:00,72.0,70.0,-100.00,SSW,210,16.0,18.0,91,-99.99,,,-99.99,,2013-06-30 01:11:00,
2013-06-29 21:22:00,72.0,70.0,-100.00,SSW,210,16.0,18.0,91,-99.99,,,-99.99,,2013-06-30 01:22:00,
2013-06-29 21:43:00,72.0,70.0,-100.00,SSW,210,13.0,16.0,92,-99.99,,,-99.99,,2013-06-30 01:43:00,
2013-06-29 21:53:00,72.0,70.0,-100.00,SSW,210,13.0,16.0,92,-99.99,,,-99.99,,2013-06-30 01:53:00,
2013-06-29 22:11:00,72.0,70.0,-100.00,SSW,200,13.0,16.0,92,-99.99,,,-99.99,,2013-06-30 02:11:00,
2013-06-29 22:23:00,72.0,70.0,-100.00,SSW,200,13.0,16.0,92,-99.99,,,-99.99,,2013-06-30 02:23:00,
2013-06-29 22:33:00,72.0,70.0,-100.00,SSW,200,13.0,13.0,93,-99.99,,,-99.99,,2013-06-30 02:33:00,
2013-06-29 22:43:00,72.0,70.0,-100.00,SSW,200,13.0,13.0,93,-99.99,,,-99.99,,2013-06-30 02:43:00,